This demonstration page uses our WeatherBlox Daily Observations layout. Learn more.

Left ArrowRight Arrow

Hourly Observations for January 16, 2020

Temp ( °F °C ) Dew Point ( °F °C ) Humidity (%) Winds ( mph kmh ) Pressure ( in mb ) Visibility ( mi km ) Precip ( " mm )
12:53 am 00:53 Cloudy 45 7.2 39 3.9 80 80 NW 14 22 30.22 1023 10 16 0.00 0.00
1:16 am 01:16 Cloudy 43 6.1 38 3.3 82 82 NW 21 33 30.25 1024 10 16 0.00 0.00
1:53 am 01:53 Cloudy 42 5.6 37 2.8 82 82 NW 17 28 30.26 1025 10 16 0.00 0.00
2:06 am 02:06 Cloudy 41 5 37 2.8 86 86 NW 21 33 30.29 1026 10 16 0.00 0.00
2:18 am 02:18 Cloudy 41 5 36 2.2 82 82 WNW 15 24 30.30 1026 10 16 0.00 0.00
2:53 am 02:53 Cloudy 40 4.4 35 1.7 83 83 NW 14 22 30.31 1026 10 16 0.00 0.00
3:09 am 03:09 Cloudy 40 4.4 34 1.1 79 79 NW 13 20 30.33 1027 10 16 0.00 0.00
3:53 am 03:53 Cloudy 40 4.4 33 0.6 77 77 NW 12 19 30.34 1027 10 16 0.00 0.00
4:53 am 04:53 Cloudy 39 3.9 31 -0.6 73 73 W 9 15 30.37 1028 10 16 0.00 0.00
5:53 am 05:53 Cloudy 38 3.3 29 -1.7 70 70 WNW 13 20 30.41 1030 10 16 0.00 0.00
6:53 am 06:53 Cloudy 37 2.8 27 -2.8 67 67 NW 17 28 30.45 1031 10 16 0.00 0.00
7:53 am 07:53 Cloudy 36 2.2 28 -2.2 73 73 W 8 13 30.47 1032 10 16 0.00 0.00
8:53 am 08:53 Cloudy 35 1.7 26 -3.3 70 70 W 12 19 30.51 1033 10 16 0.00 0.00
9:53 am 09:53 Cloudy 35 1.7 26 -3.3 70 70 WNW 13 20 30.51 1033 10 16 0.00 0.00
10:53 am 10:53 Cloudy 37 2.8 25 -3.9 62 62 WNW 16 26 30.55 1035 10 16 0.00 0.00
11:31 am 11:31 Partly Cloudy 36 2.2 25 -3.9 64 64 WNW 16 26 30.58 1035 10 16 0.00 0.00
11:53 am 11:53 Mostly Sunny 37 2.8 25 -3.9 62 62 WNW 17 28 30.56 1035 10 16 0.00 0.00
12:53 pm 12:53 Partly Cloudy 38 3.3 24 -4.4 57 57 WNW 16 26 30.55 1035 10 16 0.00 0.00
1:53 pm 13:53 Mostly Sunny 38 3.3 23 -5 55 55 NW 13 20 30.55 1035 10 16 0.00 0.00
2:53 pm 14:53 Sunny 39 3.9 23 -5 53 53 WNW 14 22 30.55 1035 10 16 0.00 0.00
3:53 pm 15:53 Sunny 38 3.3 22 -5.6 52 52 WNW 16 26 30.58 1036 10 16 0.00 0.00
4:53 pm 16:53 Sunny 36 2.2 19 -7.2 50 50 NW 10 17 30.60 1036 10 16 0.00 0.00
5:53 pm 17:53 Clear 33 0.6 20 -6.7 58 58 WNW 12 19 30.63 1037 10 16 0.00 0.00
6:53 pm 18:53 Clear 30 -1.1 20 -6.7 66 66 WNW 10 17 30.66 1038 10 16 0.00 0.00
7:53 pm 19:53 Clear 28 -2.2 20 -6.7 72 72 WNW 10 17 30.70 1040 10 16 0.00 0.00
8:53 pm 20:53 Clear 28 -2.2 18 -7.8 66 66 NNW 10 17 30.71 1040 10 16 0.00 0.00
9:53 pm 21:53 Mostly Clear 28 -2.2 18 -7.8 66 66 NW 13 20 30.73 1041 10 16 0.00 0.00
10:53 pm 22:53 Mostly Cloudy 27 -2.8 17 -8.3 66 66 NW 13 20 30.74 1041 10 16 0.00 0.00
11:48 pm 23:48 Partly Cloudy 25 -4 16 -9 69 69 N 10 17 30.79 1042 10 16 0.00 0.00
11:53 pm 23:53 Mostly Clear 25 -3.9 16 -8.9 69 69 N 10 17 30.76 1042 10 16 0.00 0.00

Powered by AerisWeather